Time,TemperatureF,DewpointF,PressureIn,WindDirection,WindDirectionDegrees,WindSpeedMPH,WindSpeedGustMPH,Humidity,HourlyPrecipIn,Conditions,Clouds,dailyrainin,SoftwareType,DateUTC
2013-10-16 00:13:00,49.0,41.0,30.08,NNE,32,0.0,-999.0,74,-99.99,,,-99.99,,2013-10-16 05:13:00,
2013-10-16 00:22:00,49.0,41.0,30.08,NE,47,0.0,-999.0,75,-99.99,,,-99.99,,2013-10-16 05:22:00,
2013-10-16 00:43:00,49.0,41.0,30.07,NW,311,0.0,-999.0,75,-99.99,,,-99.99,,2013-10-16 05:43:00,
2013-10-16 00:52:00,48.0,41.0,30.07,NW,310,0.0,-999.0,76,-99.99,,,-99.99,,2013-10-16 05:52:00,
2013-10-16 01:12:00,48.0,41.0,30.07,NW,310,0.0,-999.0,76,-99.99,,,-99.99,,2013-10-16 06:12:00,
2013-10-16 01:22:00,48.0,41.0,30.06,NNW,347,0.0,-999.0,76,-99.99,,,-99.99,,2013-10-16 06:22:00,
2013-10-16 01:43:00,48.0,41.0,30.07,NNW,346,0.0,-999.0,76,-99.99,,,-99.99,,2013-10-16 06:43:00,
2013-10-16 01:52:00,48.0,40.0,30.07,NNW,333,0.0,-999.0,75,-99.99,,,-99.99,,2013-10-16 06:52:00,
2013-10-16 02:11:00,48.0,40.0,30.07,SW,222,1.0,-999.0,75,-99.99,,,-99.99,,2013-10-16 07:11:00,
2013-10-16 02:21:00,48.0,40.0,30.07,WSW,238,0.0,-999.0,75,-99.99,,,-99.99,,2013-10-16 07:21:00,
2013-10-16 02:42:00,48.0,40.0,30.07,South,174,2.0,-999.0,74,-99.99,,,-99.99,,2013-10-16 07:42:00,
2013-10-16 02:53:00,48.0,40.0,30.08,NNW,332,0.0,-999.0,74,-99.99,,,-99.99,,2013-10-16 07:53:00,
2013-10-16 03:11:00,48.0,40.0,30.08,North,360,0.0,-999.0,74,-99.99,,,-99.99,,2013-10-16 08:11:00,
2013-10-16 03:21:00,48.0,40.0,30.07,NW,306,0.0,-999.0,75,-99.99,,,-99.99,,2013-10-16 08:21:00,
2013-10-16 03:42:00,48.0,41.0,30.07,WNW,289,0.0,-999.0,76,-99.99,,,-99.99,,2013-10-16 08:42:00,
2013-10-16 03:52:00,48.0,41.0,30.07,NW,322,0.0,-999.0,77,-99.99,,,-99.99,,2013-10-16 08:52:00,
2013-10-16 04:11:00,47.0,41.0,30.07,North,9,0.0,-999.0,79,-99.99,,,-99.99,,2013-10-16 09:11:00,
2013-10-16 04:22:00,47.0,41.0,30.06,North,355,0.0,-999.0,80,-99.99,,,-99.99,,2013-10-16 09:22:00,
2013-10-16 04:43:00,47.0,41.0,30.05,NNE,19,0.0,-999.0,81,-99.99,,,-99.99,,2013-10-16 09:43:00,
2013-10-16 04:53:00,47.0,41.0,30.06,West,268,0.0,-999.0,81,-99.99,,,-99.99,,2013-10-16 09:53:00,
2013-10-16 05:12:00,47.0,41.0,30.06,NW,311,0.0,-999.0,81,-99.99,,,-99.99,,2013-10-16 10:12:00,
2013-10-16 05:23:00,47.0,42.0,30.06,NW,313,0.0,-999.0,82,-99.99,,,-99.99,,2013-10-16 10:23:00,
2013-10-16 05:42:00,47.0,41.0,30.06,WSW,242,0.0,-999.0,81,-99.99,,,-99.99,,2013-10-16 10:42:00,
2013-10-16 05:53:00,47.0,42.0,30.06,WNW,300,0.0,-999.0,82,-99.99,,,-99.99,,2013-10-16 10:53:00,
2013-10-16 06:12:00,46.0,41.0,30.06,WNW,300,0.0,-999.0,81,-99.99,,,-99.99,,2013-10-16 11:12:00,
2013-10-16 06:22:00,46.0,41.0,30.06,WNW,300,0.0,-999.0,82,-99.99,,,-99.99,,2013-10-16 11:22:00,
2013-10-16 06:42:00,46.0,41.0,30.07,NW,308,0.0,-999.0,83,-99.99,,,-99.99,,2013-10-16 11:42:00,
2013-10-16 06:52:00,46.0,41.0,30.07,NW,308,0.0,-999.0,83,-99.99,,,-99.99,,2013-10-16 11:52:00,
2013-10-16 07:12:00,46.0,41.0,30.07,NW,313,0.0,-999.0,82,-99.99,,,-99.99,,2013-10-16 12:12:00,
2013-10-16 07:21:00,46.0,41.0,30.07,NW,313,0.0,-999.0,82,-99.99,,,-99.99,,2013-10-16 12:21:00,
2013-10-16 07:42:00,46.0,41.0,30.07,NW,313,0.0,-999.0,82,-99.99,,,-99.99,,2013-10-16 12:42:00,
2013-10-16 07:52:00,46.0,41.0,30.07,NW,306,0.0,-999.0,82,-99.99,,,-99.99,,2013-10-16 12:52:00,
2013-10-16 08:11:00,46.0,41.0,30.07,NW,313,0.0,-999.0,81,-99.99,,,-99.99,,2013-10-16 13:11:00,
2013-10-16 08:22:00,47.0,41.0,30.07,NNW,346,0.0,-999.0,81,-99.99,,,-99.99,,2013-10-16 13:22:00,
2013-10-16 08:42:00,47.0,41.0,30.08,NNW,346,0.0,-999.0,81,-99.99,,,-99.99,,2013-10-16 13:42:00,
2013-10-16 08:52:00,47.0,41.0,30.08,NW,310,1.0,-999.0,80,-99.99,,,-99.99,,2013-10-16 13:52:00,
2013-10-16 09:11:00,47.0,41.0,30.08,East,94,1.0,-999.0,79,-99.99,,,-99.99,,2013-10-16 14:11:00,
2013-10-16 09:22:00,47.0,41.0,30.09,East,91,0.0,-999.0,79,-99.99,,,-99.99,,2013-10-16 14:22:00,
2013-10-16 09:42:00,47.0,41.0,30.09,SSW,193,0.0,-999.0,79,-99.99,,,-99.99,,2013-10-16 14:42:00,
2013-10-16 09:52:00,48.0,41.0,30.09,South,190,0.0,-999.0,77,-99.99,,,-99.99,,2013-10-16 14:52:00,
2013-10-16 10:11:00,49.0,41.0,30.09,WNW,292,1.0,-999.0,74,-99.99,,,-99.99,,2013-10-16 15:11:00,
2013-10-16 10:22:00,49.0,41.0,30.09,West,279,0.0,-999.0,73,-99.99,,,-99.99,,2013-10-16 15:22:00,
2013-10-16 10:43:00,50.0,41.0,30.09,West,277,2.0,-999.0,70,-99.99,,,-99.99,,2013-10-16 15:43:00,
2013-10-16 10:53:00,50.0,41.0,30.09,NNW,331,1.0,-999.0,71,-99.99,,,-99.99,,2013-10-16 15:53:00,
2013-10-16 11:13:00,51.0,41.0,30.09,South,169,0.0,-999.0,69,-99.99,,,-99.99,,2013-10-16 16:13:00,
2013-10-16 11:23:00,52.0,41.0,30.09,WNW,292,0.0,-999.0,66,-99.99,,,-99.99,,2013-10-16 16:23:00,
2013-10-16 11:42:00,53.0,42.0,30.09,SSW,211,0.0,-999.0,67,-99.99,,,-99.99,,2013-10-16 16:42:00,
2013-10-16 11:53:00,52.0,41.0,30.09,SSW,212,0.0,-999.0,67,-99.99,,,-99.99,,2013-10-16 16:53:00,
2013-10-16 12:12:00,53.0,41.0,30.08,SSW,194,0.0,-999.0,64,-99.99,,,-99.99,,2013-10-16 17:12:00,
2013-10-16 12:22:00,53.0,42.0,30.08,South,186,0.0,-999.0,66,-99.99,,,-99.99,,2013-10-16 17:22:00,
2013-10-16 12:43:00,54.0,43.0,30.08,SSW,192,0.0,-999.0,67,-99.99,,,-99.99,,2013-10-16 17:43:00,
2013-10-16 12:52:00,54.0,41.0,30.08,ESE,113,0.0,-999.0,62,-99.99,,,-99.99,,2013-10-16 17:52:00,
2013-10-16 13:11:00,55.0,43.0,30.08,West,278,1.0,-999.0,63,-99.99,,,-99.99,,2013-10-16 18:11:00,
2013-10-16 13:22:00,54.0,41.0,30.06,SW,224,0.0,-999.0,61,-99.99,,,-99.99,,2013-10-16 18:22:00,
2013-10-16 13:42:00,56.0,43.0,30.06,East,87,0.0,-999.0,61,-99.99,,,-99.99,,2013-10-16 18:42:00,
2013-10-16 13:52:00,57.0,43.0,30.05,NW,325,0.0,-999.0,60,-99.99,,,-99.99,,2013-10-16 18:52:00,
2013-10-16 14:11:00,56.0,44.0,30.04,NNW,345,0.0,-999.0,63,-99.99,,,-99.99,,2013-10-16 19:11:00,
2013-10-16 14:22:00,56.0,41.0,30.03,NW,315,0.0,-999.0,58,-99.99,,,-99.99,,2013-10-16 19:22:00,
2013-10-16 14:42:00,57.0,45.0,30.03,NNW,338,0.0,-999.0,63,-99.99,,,-99.99,,2013-10-16 19:42:00,
2013-10-16 14:52:00,56.0,42.0,30.02,NNW,342,0.0,-999.0,60,-99.99,,,-99.99,,2013-10-16 19:52:00,
2013-10-16 15:12:00,56.0,42.0,30.02,SW,233,0.0,-999.0,59,-99.99,,,-99.99,,2013-10-16 20:12:00,
2013-10-16 15:22:00,56.0,42.0,30.01,WNW,287,0.0,-999.0,59,-99.99,,,-99.99,,2013-10-16 20:22:00,
2013-10-16 15:43:00,58.0,42.0,30.01,SSW,200,1.0,-999.0,55,-99.99,,,-99.99,,2013-10-16 20:43:00,
2013-10-16 15:52:00,58.0,42.0,30.00,SSW,196,0.0,-999.0,56,-99.99,,,-99.99,,2013-10-16 20:52:00,
2013-10-16 16:11:00,59.0,43.0,30.00,WSW,242,0.0,-999.0,55,-99.99,,,-99.99,,2013-10-16 21:11:00,
2013-10-16 16:23:00,59.0,42.0,29.99,South,182,0.0,-999.0,54,-99.99,,,-99.99,,2013-10-16 21:23:00,
2013-10-16 16:44:00,59.0,43.0,29.99,SW,222,0.0,-999.0,56,-99.99,,,-99.99,,2013-10-16 21:44:00,
2013-10-16 16:54:00,59.0,43.0,29.98,SW,222,0.0,-999.0,55,-99.99,,,-99.99,,2013-10-16 21:54:00,
2013-10-16 17:14:00,59.0,43.0,29.97,SW,219,0.0,-999.0,56,-99.99,,,-99.99,,2013-10-16 22:14:00,
2013-10-16 17:24:00,60.0,44.0,29.98,SW,219,0.0,-999.0,56,-99.99,,,-99.99,,2013-10-16 22:24:00,
2013-10-16 17:42:00,59.0,44.0,29.97,SW,219,0.0,-999.0,57,-99.99,,,-99.99,,2013-10-16 22:42:00,
2013-10-16 17:54:00,57.0,43.0,29.97,SW,219,0.0,-999.0,60,-99.99,,,-99.99,,2013-10-16 22:54:00,
2013-10-16 18:12:00,56.0,44.0,29.97,SW,219,0.0,-999.0,64,-99.99,,,-99.99,,2013-10-16 23:12:00,
2013-10-16 18:22:00,55.0,43.0,29.97,SW,219,0.0,-999.0,64,-99.99,,,-99.99,,2013-10-16 23:22:00,
2013-10-16 18:42:00,55.0,45.0,29.98,SW,219,0.0,-999.0,69,-99.99,,,-99.99,,2013-10-16 23:42:00,
2013-10-16 18:52:00,54.0,44.0,29.99,SW,219,0.0,-999.0,69,-99.99,,,-99.99,,2013-10-16 23:52:00,
2013-10-16 19:11:00,53.0,43.0,29.99,SW,219,0.0,-999.0,70,-99.99,,,-99.99,,2013-10-17 00:11:00,
2013-10-16 19:22:00,53.0,43.0,29.99,SW,219,0.0,-999.0,70,-99.99,,,-99.99,,2013-10-17 00:22:00,
2013-10-16 19:42:00,52.0,44.0,30.00,SW,219,0.0,-999.0,73,-99.99,,,-99.99,,2013-10-17 00:42:00,
2013-10-16 19:52:00,52.0,44.0,30.00,SW,219,0.0,-999.0,74,-99.99,,,-99.99,,2013-10-17 00:52:00,
2013-10-16 20:12:00,52.0,45.0,29.99,SW,218,0.0,-999.0,76,-99.99,,,-99.99,,2013-10-17 01:12:00,
2013-10-16 20:22:00,51.0,44.0,29.99,SW,218,0.0,-999.0,77,-99.99,,,-99.99,,2013-10-17 01:22:00,
2013-10-16 20:42:00,51.0,45.0,30.00,SW,218,0.0,-999.0,79,-99.99,,,-99.99,,2013-10-17 01:42:00,
2013-10-16 20:52:00,50.0,44.0,30.00,SW,218,0.0,-999.0,80,-99.99,,,-99.99,,2013-10-17 01:52:00,
2013-10-16 21:12:00,50.0,44.0,29.99,SW,218,0.0,-999.0,81,-99.99,,,-99.99,,2013-10-17 02:12:00,
2013-10-16 21:21:00,50.0,45.0,30.00,SW,218,0.0,-999.0,82,-99.99,,,-99.99,,2013-10-17 02:21:00,
2013-10-16 22:12:00,49.0,44.0,29.99,SW,218,0.0,-999.0,84,-99.99,,,-99.99,,2013-10-17 03:12:00,
2013-10-16 22:22:00,49.0,45.0,30.00,SW,218,0.0,-999.0,85,-99.99,,,-99.99,,2013-10-17 03:22:00,
2013-10-16 22:44:00,49.0,45.0,30.00,SW,218,0.0,-999.0,85,-99.99,,,-99.99,,2013-10-17 03:44:00,
2013-10-16 22:54:00,48.0,44.0,30.00,SW,218,0.0,-999.0,85,-99.99,,,-99.99,,2013-10-17 03:54:00,
2013-10-16 23:14:00,48.0,44.0,30.00,SW,218,0.0,-999.0,86,-99.99,,,-99.99,,2013-10-17 04:14:00,
2013-10-16 23:24:00,48.0,44.0,29.99,SW,218,0.0,-999.0,86,-99.99,,,-99.99,,2013-10-17 04:24:00,
2013-10-16 23:43:00,48.0,44.0,29.99,SW,218,0.0,-999.0,86,-99.99,,,-99.99,,2013-10-17 04:43:00,
2013-10-16 23:54:00,48.0,44.0,29.99,SW,218,0.0,-999.0,87,-99.99,,,-99.99,,2013-10-17 04:54:00,